Change the Weather History Date:

Thursday, January 9, 2014

  Actual Average Record
Temperature  
Mean Temperature 37 °F -  
Max Temperature 51 °F 46 °F 73 °F (2003)
Min Temperature 23 °F 28 °F 4 °F (1970)
Degree Days  
Heating Degree Days 28    
Moisture  
Dew Point 18 °F    
Average Humidity 48    
Maximum Humidity 72    
Minimum Humidity 18    
Precipitation  
Precipitation 0.00 in - - ()
Sea Level Pressure  
Sea Level Pressure 30.52 in    
Wind  
Wind Speed 0 mph (SE)    
Max Wind Speed 5 mph    
Max Gust Speed -    
Visibility 10 miles    
Events      
Averages and records for this station are not official NWS values.
T = Trace of Precipitation, MM = Missing Value Source: NWS Daily Summary

Daily Weather History Graph

Daily Weather History Graph

Search for Another Location

Airport or City:

Trip Planner

Search our weather history database for the weather conditions in past years. The results will help you decide how hot, cold, wet, or windy it might be!

Date:

Astronomy

Jan. 09, 2014 Rise Set
Actual Time 7:29 AM EST 5:24 PM EST
Civil Twilight 7:01 AM EST 5:52 PM EST
Nautical Twilight 6:30 AM EST 6:23 PM EST
Astronomical Twilight 5:59 AM EST 6:54 PM EST
Moon 12:45 PM EST (1/9) 1:40 AM EST (1/9)
Length of Visible Light 10h 50m
Length of Day
9h 54m
Waxing Gibbous, 66% of the Moon is Illuminated
Jan 9
Waxing Gibbous
Jan 15
Full
Jan 24
Last Quarter
Jan 30
New
Feb 6
First Quarter

Hourly Weather History & Observations

Time (EST) Temp. Windchill Dew Point Humidity Pressure Visibility Wind Dir Wind Speed Gust Speed Precip Events Conditions
12:15 AM 25.3 °F - 14.5 °F 64% 30.54 in 10.0 mi Calm Calm - N/A   Clear
12:30 AM 25.7 °F - 15.3 °F 65% 30.54 in 10.0 mi Calm Calm - N/A   Clear
12:55 AM 25.5 °F - 14.0 °F 62% 30.52 in 10.0 mi Calm Calm - N/A   Clear
1:15 AM 26.4 °F - 11.7 °F 54% 30.52 in 10.0 mi Calm Calm - N/A   Clear
1:35 AM 26.4 °F - 14.2 °F 60% 30.52 in 10.0 mi Calm Calm - N/A   Clear
1:55 AM 26.6 °F - 16.0 °F 64% 30.52 in 10.0 mi Calm Calm - N/A   Clear
2:15 AM 26.2 °F - 15.3 °F 63% 30.52 in 10.0 mi Calm Calm - N/A   Clear
2:35 AM 26.2 °F - 14.4 °F 61% 30.52 in 10.0 mi Calm Calm - N/A   Clear
2:55 AM 25.5 °F - 14.0 °F 62% 30.54 in 10.0 mi Calm Calm - N/A   Clear
3:15 AM 25.2 °F - 15.1 °F 66% 30.54 in 10.0 mi Calm Calm - N/A   Clear
3:35 AM 25.2 °F - 14.7 °F 65% 30.53 in 10.0 mi Calm Calm - N/A   Clear
3:55 AM 24.6 °F - 16.2 °F 70% 30.52 in 10.0 mi Calm Calm - N/A   Clear
4:15 AM 24.8 °F - 16.7 °F 71% 30.52 in 10.0 mi Calm Calm - N/A   Clear
4:35 AM 24.8 °F - 14.4 °F 65% 30.52 in 10.0 mi Calm Calm - N/A   Clear
4:55 AM 24.4 °F - 15.1 °F 68% 30.52 in 10.0 mi Calm Calm - N/A   Clear
5:15 AM 25.3 °F - 16.7 °F 70% 30.52 in 10.0 mi Calm Calm - N/A   Clear
5:35 AM 24.4 °F - 16.0 °F 70% 30.52 in 10.0 mi Calm Calm - N/A   Clear
5:55 AM 25.2 °F - 15.8 °F 68% 30.52 in 10.0 mi Calm Calm - N/A   Clear
6:15 AM 25.2 °F - 16.3 °F 69% 30.53 in 10.0 mi Calm Calm - N/A   Clear
6:35 AM 25.0 °F - 17.1 °F 72% 30.53 in 10.0 mi Calm Calm - N/A   Clear
6:55 AM 24.8 °F - 16.0 °F 69% 30.54 in 10.0 mi Calm Calm - N/A   Clear
7:15 AM 23.9 °F - 16.0 °F 72% 30.54 in 10.0 mi Calm Calm - N/A   Clear
7:35 AM 23.9 °F - 15.8 °F 71% 30.54 in 10.0 mi Calm Calm - N/A   Clear
7:55 AM 23.7 °F - 13.5 °F 65% 30.54 in 10.0 mi Calm Calm - N/A   Clear
8:15 AM 23.2 °F - 15.1 °F 71% 30.55 in 10.0 mi Calm Calm - N/A   Clear
8:35 AM 25.3 °F - 14.9 °F 65% 30.56 in 10.0 mi Calm Calm - N/A   Clear
8:55 AM 27.3 °F - 18.0 °F 68% 30.57 in 10.0 mi Calm Calm - N/A   Clear
9:15 AM 29.8 °F - 18.5 °F 63% 30.57 in 10.0 mi Calm Calm - N/A   Clear
9:35 AM 32.4 °F - 16.5 °F 52% 30.57 in 10.0 mi Calm Calm - N/A   Clear
9:55 AM 35.1 °F - 17.8 °F 49% 30.58 in 10.0 mi Calm Calm - N/A   Clear
10:15 AM 36.9 °F - 15.8 °F 42% 30.58 in 10.0 mi Calm Calm - N/A   Clear
10:35 AM 38.8 °F - 16.3 °F 40% 30.58 in 10.0 mi Calm Calm - N/A   Clear
10:55 AM 40.5 °F - 16.3 °F 38% 30.58 in 10.0 mi Calm Calm - N/A   Clear
11:15 AM 41.9 °F - 14.4 °F 33% 30.57 in 10.0 mi Calm Calm - N/A   Clear
11:35 AM 43.2 °F - 14.0 °F 31% 30.56 in 10.0 mi Calm Calm - N/A   Clear
11:55 AM 43.7 °F - 13.6 °F 30% 30.55 in 10.0 mi Calm Calm - N/A   Clear
12:15 PM 45.7 °F 43.4 °F 8.1 °F 22% 30.54 in 10.0 mi South 4.6 mph - N/A   Clear
12:35 PM 46.6 °F - 4.5 °F 18% 30.52 in 10.0 mi Calm Calm - N/A   Clear
12:55 PM 47.3 °F - 10.9 °F 23% 30.51 in 10.0 mi Calm Calm - N/A   Clear
1:15 PM 47.8 °F - 12.0 °F 24% 30.50 in 10.0 mi West 3.5 mph - N/A   Clear
1:35 PM 47.8 °F - 9.9 °F 22% 30.50 in 10.0 mi Calm Calm - N/A   Clear
1:55 PM 48.9 °F - 10.6 °F 21% 30.49 in 10.0 mi Calm Calm - N/A   Clear
2:15 PM 50.4 °F - 11.7 °F 21% 30.48 in 10.0 mi Calm Calm - N/A   Clear
2:35 PM 50.5 °F - 11.8 °F 21% 30.49 in 10.0 mi Calm Calm - N/A   Clear
2:55 PM 51.3 °F - 14.5 °F 23% 30.48 in 10.0 mi Calm Calm - N/A   Clear
3:35 PM 50.9 °F - 20.3 °F 30% 30.48 in 10.0 mi SE 4.6 mph - N/A   Clear
3:55 PM 50.5 °F - 19.6 °F 30% 30.49 in 10.0 mi Calm Calm - N/A   Mostly Cloudy
4:15 PM 50.5 °F - 21.0 °F 31% 30.49 in 10.0 mi Calm Calm - N/A   Mostly Cloudy
4:35 PM 50.7 °F - 22.1 °F 33% 30.49 in 10.0 mi SE 3.5 mph - N/A   Scattered Clouds
4:55 PM 49.8 °F - 21.7 °F 33% 30.50 in 10.0 mi Calm Calm - N/A   Clear
5:15 PM 47.1 °F - 22.8 °F 38% 30.50 in 10.0 mi Calm Calm - N/A   Clear
6:15 PM 41.7 °F - 24.8 °F 51% 30.50 in 10.0 mi Calm Calm - N/A   Overcast
6:35 PM 43.3 °F - 23.7 °F 46% 30.51 in 10.0 mi Calm Calm - N/A   Overcast
6:55 PM 44.4 °F 42.0 °F 25.3 °F 47% 30.49 in 10.0 mi ENE 4.6 mph - N/A   Overcast
7:15 PM 46.9 °F - 23.7 °F 40% 30.50 in 10.0 mi Calm Calm - N/A   Overcast
7:35 PM 47.3 °F - 22.8 °F 38% 30.50 in 10.0 mi Calm Calm - N/A   Overcast
7:55 PM 47.5 °F - 22.5 °F 37% 30.51 in 10.0 mi Calm Calm - N/A   Overcast
8:15 PM 47.3 °F - 22.5 °F 38% 30.53 in 10.0 mi Calm Calm - N/A   Overcast
8:35 PM 47.3 °F - 23.5 °F 39% 30.52 in 10.0 mi Calm Calm - N/A   Overcast
8:55 PM 46.0 °F - 24.6 °F 43% 30.52 in 10.0 mi Calm Calm - N/A   Overcast
9:15 PM 46.4 °F - 25.3 °F 44% 30.52 in 10.0 mi Calm Calm - N/A   Overcast
9:35 PM 46.0 °F - 25.3 °F 44% 30.52 in 10.0 mi Calm Calm - N/A   Overcast
9:55 PM 46.0 °F - 25.2 °F 44% 30.51 in 10.0 mi Calm Calm - N/A   Overcast
10:15 PM 45.9 °F 44.6 °F 25.2 °F 44% 30.52 in 10.0 mi ESE 3.5 mph - N/A   Overcast
10:35 PM 45.7 °F - 25.2 °F 45% 30.51 in 10.0 mi Calm Calm - N/A   Overcast
10:55 PM 45.7 °F - 25.3 °F 45% 30.51 in 10.0 mi Calm Calm - N/A   Overcast
11:15 PM 45.5 °F - 25.3 °F 45% 30.50 in 10.0 mi Calm Calm - N/A   Overcast
11:35 PM 45.5 °F - 26.2 °F 47% 30.49 in 10.0 mi Calm Calm - N/A   Overcast
11:55 PM 45.5 °F - 27.1 °F 49% 30.48 in 10.0 mi Calm Calm - N/A   Overcast